Hourly Data Report for March 02, 2006

TORONTO CITY
ONTARIO

43°40'00.000" N
79°24'00.000" W
112.50 m
6158355
71508
XTO

Download Data

Hourly Data (March 2006)
Hourly Data Report for March 2, 2006
TIME
LST
Temp Definition
°C
Dew Point Definition
°C
Rel Hum Definition
%
Precip. Amount Definition
mm

Wind Dir Definition
10's deg

Wind Spd Definition
km/h
Visibility Definition
km
Stn Press Definition
kPa
Hmdx Definition


Wind Chill Definition


Weather Definition


00:00 -5.2 -9.3 73   LegendMM LegendMM   99.73     LegendNANA
01:00 -5.5 -9.4 74   LegendMM LegendMM   99.65     LegendNANA
02:00 -5.8 -9.4 76   LegendMM LegendMM   99.51     LegendNANA
03:00 -6.0 -9.6 76   LegendMM LegendMM   99.40     LegendNANA
04:00 -5.7 -9.5 75   LegendMM LegendMM   99.30     LegendNANA
05:00 -5.0 -9.7 70   LegendMM LegendMM   99.30     LegendNANA
06:00 -4.9 -9.1 72   LegendMM LegendMM   99.31     LegendNANA
07:00 -4.5 -9.0 71   LegendMM LegendMM   99.25     LegendNANA
08:00 -3.9 -9.3 66   LegendMM LegendMM   99.24     LegendNANA
09:00 -3.3 -8.5 67   LegendMM LegendMM   99.16     LegendNANA
10:00 -2.6 -6.9 72   LegendMM LegendMM   99.10     LegendNANA
11:00 -2.3 -6.6 72   LegendMM LegendMM   99.06     LegendNANA
12:00 -2.1 -6.5 72   LegendMM LegendMM   99.02     LegendNANA
13:00 -1.7 -7.2 66   LegendMM LegendMM   99.10     LegendNANA
14:00 -1.1 -8.0 59   LegendMM LegendMM   99.18     LegendNANA
15:00 -1.4 -9.9 52   LegendMM LegendMM   99.26     LegendNANA
16:00 -1.8 -10.0 53   LegendMM LegendMM   99.40     LegendNANA
17:00 -2.0 -9.1 58   LegendMM LegendMM   99.56     LegendNANA
18:00 -2.6 -10.0 57   LegendMM LegendMM   99.68     LegendNANA
19:00 -3.5 -10.0 61   LegendMM LegendMM   99.81     LegendNANA
20:00 -4.0 -9.7 64   LegendMM LegendMM   99.93     LegendNANA
21:00 -4.7 -10.6 63   LegendMM LegendMM   100.03     LegendNANA
22:00 -5.1 -11.9 59   LegendMM LegendMM   100.13     LegendNANA
23:00 -5.7 -12.6 58   LegendMM LegendMM   100.21     LegendNANA

Notes on Data Quality.

Legend

  • E = Estimated
  • M = Missing
  • NA = Not Available*
  • [empty] = Indicates an unobserved value
Date modified: